This is the latest recevied weather packets stored in our database for station/object K7YVO. If no packets are shown the sender has not sent any weather packets the latest 10 day(s).
| Time | Temp. | Humidity | Pressure | Rain* | Wind** | Luminosity | Snow |
|---|---|---|---|---|---|---|---|
| 1777776748 | 18.89° C | 70% | 1014.9 hPa | 0 mm | - | 11 W/m² | - |
| 1777776445 | 18.89° C | 69% | 1014.7 hPa | 0 mm | - | 13 W/m² | - |
| 1777776142 | 19.44° C | 69% | 1014.9 hPa | 0 mm | - | 17 W/m² | - |
| 1777775839 | 19.44° C | 68% | 1014.8 hPa | 0 mm | - | 21 W/m² | - |
| 1777775535 | 19.44° C | 68% | 1014.9 hPa | 0 mm | - | 26 W/m² | - |
| 1777775232 | 19.44° C | 68% | 1014.9 hPa | 0 mm | - | 31 W/m² | - |
| 1777774931 | 19.44° C | 68% | 1014.8 hPa | 0 mm | - | 35 W/m² | - |
| 1777774628 | 19.44° C | 68% | 1014.8 hPa | 0 mm | - | 39 W/m² | - |
| 1777774324 | 19.44° C | 68% | 1014.8 hPa | 0 mm | - | 45 W/m² | - |
| 1777774022 | 19.44° C | 68% | 1014.9 hPa | 0 mm | - | 52 W/m² | - |
| 1777773719 | 20° C | 68% | 1014.6 hPa | 0 mm | - | 57 W/m² | - |
| 1777773416 | 20° C | 66% | 1014.4 hPa | 0 mm | - | 60 W/m² | - |
| 1777772809 | 20.56° C | 66% | 1014.3 hPa | 0 mm | - | 68 W/m² | - |
| 1777772204 | 20.56° C | 64% | 1014.1 hPa | 0 mm | - | 87 W/m² | - |
| 1777771902 | 20.56° C | 63% | 1013.9 hPa | 0 mm | - | 95 W/m² | - |
| 1777770385 | 20.56° C | 64% | 1014 hPa | 0 mm | - | 122 W/m² | - |
| 1777768872 | 20.56° C | 63% | 1014 hPa | 0 mm | - | 148 W/m² | - |
| 1777767962 | 20.56° C | 62% | 1013.9 hPa | 0 mm | - | 171 W/m² | - |
| 1777767659 | 21.11° C | 62% | 1013.9 hPa | 0 mm | - | 178 W/m² | - |
| 1777767355 | 21.11° C | 61% | 1013.9 hPa | 0 mm | - | 170 W/m² | - |
| 1777767052 | 20.56° C | 62% | 1013.8 hPa | 0 mm | - | 172 W/m² | - |
| 1777766750 | 21.11° C | 62% | 1014 hPa | 0 mm | - | 169 W/m² | - |
| 1777766143 | 21.11° C | 59% | 1013.8 hPa | 0 mm | - | 198 W/m² | - |
| 1777765537 | 21.11° C | 61% | 1013.9 hPa | 0 mm | - | 252 W/m² | - |
| 1777765235 | 21.11° C | 60% | 1014.2 hPa | 0 mm | - | 224 W/m² | - |
* Rain latest hour (hover to see other rain measurements)
** Current wind speed in m/s (hover to see current wind gust speed)